GFSGL_250_spd_336.txt.gz
Wind_Speed
92 91 88 85 78 72 73 74 75 76 76 77 80 79 80 83 86 86 86 86 88 88 88 90 89 90 89 91 93 97 97 100 97 96 97 100 101 104 103 101 100 100 98
79 79 76 73 74 76 78 80 81 82 81 83 82 83 84 87 89 91 92 91 92 92 92 92 91 89 89 90 97 100 99 98 99 97 102 107 111 113 113 112 111 111 108
80 81 81 80 79 81 84 85 88 88 89 86 86 87 89 89 89 91 93 93 92 91 91 91 90 92 98 102 101 106 108 112 114 111 108 111 113 111 114 118 119 118 115
86 86 87 88 85 86 86 87 86 86 93 92 95 93 94 95 96 97 96 92 92 92 93 96 94 96 98 109 110 113 116 121 118 117 113 107 111 109 108 111 111 118 120
92 90 88 88 94 91 91 87 84 87 95 95 95 96 100 98 99 94 98 102 105 106 106 107 104 107 109 110 107 108 110 111 110 109 107 105 107 112 111 112 109 110 108
91 96 91 81 94 92 92 95 92 95 96 99 100 96 101 106 98 103 106 109 113 117 116 113 117 115 111 108 110 112 113 116 114 112 112 111 110 111 111 106 107 108 100
95 97 96 90 96 97 96 102 101 98 98 100 98 106 108 107 111 113 117 119 119 122 122 119 117 117 114 113 114 115 113 112 112 108 106 109 105 107 103 104 106 100 96
97 98 96 98 99 101 100 102 100 99 102 111 107 110 114 117 121 123 121 123 128 123 122 121 121 120 119 116 114 110 104 99 98 95 92 89 86 86 85 85 87 87 87
99 100 102 102 101 104 106 107 109 109 111 114 115 116 117 117 120 122 126 127 123 123 125 126 126 122 116 107 100 96 89 85 81 81 79 75 70 70 67 65 66 65 73
101 103 105 106 107 108 110 111 113 114 113 114 115 116 116 119 120 121 122 124 125 125 123 119 110 103 96 87 82 79 73 71 73 72 68 63 60 59 55 53 51 52 60
103 104 105 107 108 110 113 114 116 115 115 115 115 118 119 119 121 119 117 116 115 111 103 96 90 83 78 74 69 67 63 60 63 60 57 56 51 48 45 43 43 45 50
100 102 104 107 110 112 115 117 116 115 115 115 116 115 114 113 112 107 100 95 92 86 82 78 74 71 69 64 61 59 54 53 51 50 46 46 42 39 38 37 36 37 42
98 99 101 103 107 108 111 114 113 112 111 112 112 110 104 98 94 87 83 80 77 75 72 70 68 65 60 55 53 51 49 46 43 39 37 36 34 33 33 31 30 32 32
95 98 98 101 105 107 108 109 110 109 104 98 96 94 89 85 81 78 75 72 69 66 63 61 59 56 51 47 44 44 42 39 34 31 29 29 27 26 25 25 26 27 27
84 88 89 90 92 92 91 91 90 89 90 88 85 82 77 77 74 71 65 62 60 57 54 51 50 48 43 38 36 37 34 30 27 25 23 22 22 20 21 22 23 23 24
76 78 79 80 81 81 81 81 79 78 78 77 76 74 70 69 65 62 59 55 52 50 47 44 43 42 38 32 30 29 26 24 22 21 18 19 17 15 15 15 15 17 18
61 65 66 68 68 69 69 69 68 67 66 65 65 63 59 55 55 53 51 48 45 44 40 39 39 38 33 28 26 23 22 20 18 17 17 16 14 13 10 8 10 11 13
53 56 57 58 60 62 63 60 59 59 58 57 56 53 52 51 50 48 45 43 41 39 37 35 34 33 28 24 23 21 20 18 16 16 16 14 12 11 9 9 10 11 11
48 50 52 52 54 56 56 55 53 52 51 50 49 50 49 46 46 45 43 40 37 34 32 30 32 28 24 22 21 19 19 18 16 17 16 14 13 12 12 12 11 12 13
44 44 45 46 46 48 50 49 49 49 48 47 47 45 44 44 41 40 39 38 35 32 30 27 27 24 22 21 20 18 18 18 17 16 15 17 15 16 15 14 14 15 16
42 43 44 43 44 43 42 43 46 47 45 45 44 44 41 38 37 36 35 33 31 29 26 25 24 21 21 20 20 19 19 19 18 17 19 18 18 18 17 18 18 16 17
39 40 41 43 45 45 44 43 40 40 41 42 42 40 37 36 34 32 32 29 27 26 23 23 21 20 20 20 21 21 20 20 19 19 21 22 22 20 18 22 20 20 19
38 39 40 42 40 40 43 41 41 42 37 36 37 35 34 34 32 29 27 25 23 22 22 20 20 20 21 21 22 22 22 20 18 19 21 25 23 23 22 24 24 21 22
40 40 40 41 41 40 40 35 35 36 33 32 32 33 31 31 29 27 25 22 22 20 20 20 18 20 22 22 23 23 22 20 18 20 22 22 24 25 27 26 29 25 25
39 41 41 39 37 37 36 34 35 30 31 31 30 30 29 28 26 24 23 20 20 20 19 19 19 21 22 23 24 24 23 21 21 22 21 20 21 22 27 31 32 30 30
42 41 40 40 38 38 33 33 31 29 30 30 29 29 27 25 22 20 19 18 18 19 19 17 19 21 23 24 25 25 24 22 25 24 22 21 20 21 24 29 32 34 33

GFSGL_250_spd_339.txt.gz
Wind_Speed
90 92 93 94 94 95 94 92 91 86 81 77 74 74 74 75 77 77 78 79 80 83 83 83 85 87 88 89 89 90 90 91 91 94 95 95 95 96 100 99 100 100 101
95 96 96 96 94 92 91 86 81 80 79 77 78 79 80 81 82 83 84 84 83 82 84 86 88 91 93 93 93 93 93 95 95 91 95 97 99 99 102 107 106 105 108
97 95 93 91 89 87 86 84 81 82 82 82 83 85 87 88 89 89 89 90 90 88 88 90 93 93 96 95 95 95 92 92 94 95 98 103 105 107 108 113 115 117 114
98 95 94 93 92 91 89 88 87 86 88 89 90 93 91 88 88 93 95 94 96 96 98 98 99 100 101 98 99 100 101 103 104 101 99 96 100 111 117 121 121 123 122
96 95 94 94 95 95 94 94 93 94 93 89 89 92 95 96 100 94 100 99 101 101 102 103 101 103 105 108 113 114 118 117 113 109 116 111 108 108 110 116 120 123 125
93 97 96 94 92 93 87 84 88 88 97 97 92 84 99 98 102 104 106 106 104 107 104 104 110 108 117 120 120 123 122 124 126 121 119 115 115 115 114 114 114 117 116
99 97 95 93 89 92 91 93 95 97 96 103 104 98 100 105 107 109 106 112 109 108 109 109 114 122 124 125 129 128 129 128 126 120 119 116 106 105 104 102 103 103 101
101 99 100 99 99 100 101 99 100 105 105 103 106 106 104 106 111 113 115 113 112 114 117 121 123 124 127 129 130 128 129 124 114 105 97 91 88 86 84 79 79 78 79
97 97 99 102 102 101 102 101 104 105 105 107 109 109 112 113 117 117 120 123 121 120 122 124 124 124 126 128 127 123 116 111 100 90 85 83 78 74 70 66 68 64 67
100 100 99 101 102 103 104 107 109 110 111 112 115 117 119 120 120 121 124 119 120 121 123 125 125 122 121 119 114 107 101 93 85 80 78 74 66 60 59 56 55 56 57
94 97 99 101 104 107 109 110 112 113 114 113 115 117 119 121 121 119 120 121 121 119 118 116 113 104 101 98 95 89 83 75 68 69 67 61 56 50 48 48 47 47 49
90 91 94 97 100 102 104 106 109 110 111 112 114 116 118 118 118 116 115 113 111 107 103 99 94 88 84 81 78 74 66 59 59 58 53 50 46 41 41 40 39 38 37
88 90 94 96 98 102 106 109 111 112 112 112 111 113 113 115 113 109 105 102 97 90 86 80 77 75 72 70 67 61 58 54 53 49 45 43 40 35 33 33 33 33 31
80 80 82 85 87 90 92 95 97 100 101 99 100 102 103 103 101 97 90 84 80 75 72 69 67 65 63 61 59 55 50 49 46 41 38 35 31 26 26 28 28 26 25
71 73 76 78 79 81 83 85 89 87 85 83 82 82 86 86 84 80 76 72 70 66 65 62 59 57 56 55 52 48 44 42 37 33 31 27 24 21 22 23 23 22 21
58 61 62 64 63 66 70 72 75 74 75 74 73 75 76 78 75 74 71 67 65 62 61 57 54 52 50 47 44 40 35 32 29 26 23 20 19 16 16 16 16 16 16
52 56 57 57 59 61 63 66 67 69 68 67 69 69 69 68 68 65 64 61 57 55 55 51 48 45 45 41 35 32 28 25 23 20 18 16 15 14 12 11 10 10 12
44 48 50 51 54 57 58 61 62 62 62 61 62 60 59 58 57 56 55 53 50 46 46 43 39 39 38 34 29 26 23 22 19 17 16 14 12 11 9 7 8 9 10
40 42 44 46 48 52 49 48 49 51 52 51 48 53 52 49 48 49 48 44 43 41 38 36 34 34 32 27 25 22 20 19 17 17 15 13 11 10 10 9 10 11 11
35 36 38 38 40 40 41 41 39 41 42 45 47 45 44 46 45 43 41 39 36 35 33 31 31 29 27 24 22 20 19 18 17 17 15 14 13 11 11 13 13 15 14
31 35 33 34 39 40 41 42 43 41 43 43 40 38 39 40 38 37 36 35 34 32 30 28 26 25 22 22 20 18 18 18 18 17 15 14 15 13 16 16 16 15 15
33 33 34 36 38 40 42 44 45 41 41 41 38 38 37 33 32 29 31 31 30 29 28 27 23 21 20 20 18 17 18 19 19 18 16 16 17 17 19 19 20 20 19
32 31 32 37 41 41 42 43 45 41 41 37 37 34 31 31 32 31 27 29 28 26 25 24 20 18 19 19 18 18 19 21 20 19 18 19 19 21 23 23 23 23 22
33 33 35 39 39 42 42 43 45 42 40 38 36 32 32 30 28 30 28 28 26 23 23 22 19 15 18 19 19 19 22 22 21 19 20 21 22 24 25 25 28 26 25
35 34 38 43 44 44 46 48 46 45 41 36 35 35 35 30 26 27 28 25 24 22 20 19 18 14 17 18 19 21 24 24 23 21 20 21 25 25 26 27 28 27 28
40 39 40 43 43 44 46 46 47 44 41 39 36 34 29 27 24 24 23 23 21 20 20 17 16 14 16 19 20 23 25 25 24 22 23 24 25 25 25 29 30 32 31

GFSGL_250_spd_342.txt.gz
Wind_Speed
94 94 95 95 94 94 95 95 95 95 94 94 94 92 91 89 86 82 79 75 75 75 76 77 77 78 79 79 79 80 81 81 82 84 85 87 91 90 91 90 92 93 93
99 99 98 99 99 99 99 99 100 99 98 96 96 94 91 89 87 85 81 80 80 80 82 83 85 87 88 86 85 85 85 87 86 88 92 92 95 95 92 91 92 92 94
104 102 102 102 102 103 102 100 98 98 97 96 92 91 90 89 89 86 86 86 88 87 87 91 90 92 92 92 94 93 93 94 93 93 93 98 99 97 95 95 92 95 99
107 105 104 103 102 102 100 100 99 98 97 96 94 90 90 91 93 94 94 94 91 93 93 92 93 96 98 100 98 100 101 101 102 101 103 101 99 102 103 102 103 106 104
111 110 108 106 105 104 101 101 101 101 102 102 100 98 97 98 96 93 92 91 94 94 95 92 97 91 100 105 100 100 106 113 112 113 111 109 112 117 116 115 108 103 108
113 111 108 108 107 108 106 105 104 98 94 94 97 94 92 92 92 92 95 93 97 97 100 98 97 102 105 110 108 109 116 119 123 120 119 122 125 128 128 124 121 112 106
112 110 108 106 102 99 98 93 92 89 86 89 91 90 89 90 88 90 92 93 95 99 97 105 112 111 110 113 113 116 120 126 127 130 130 129 128 129 123 120 110 100 95
108 104 103 99 99 98 97 96 95 95 93 97 103 100 97 97 98 95 99 102 107 112 114 116 117 116 117 120 122 123 127 131 133 133 130 130 124 112 107 96 91 83 79
103 104 103 101 101 102 103 103 103 104 104 106 107 106 105 106 107 111 114 113 113 115 120 120 122 122 123 128 131 129 131 132 130 128 122 114 106 97 88 79 73 67 69
99 99 97 95 98 100 101 102 103 104 107 110 110 111 110 110 111 113 114 114 118 119 124 126 127 127 126 125 123 123 122 121 119 114 107 100 92 83 76 68 63 62 61
102 103 101 100 101 103 106 106 106 107 106 108 109 111 112 114 115 117 118 118 121 124 125 126 123 121 121 120 118 113 106 100 95 93 88 83 78 70 62 57 55 53 52
82 81 82 81 82 85 90 92 96 101 107 110 110 111 113 114 115 116 116 116 117 118 120 119 117 114 111 104 98 93 86 83 79 77 74 69 61 56 50 47 46 45 45
85 87 85 86 93 95 96 90 95 96 100 99 105 108 108 110 109 110 109 107 103 100 99 99 99 95 91 86 82 78 72 69 66 63 60 55 51 47 42 41 39 40 39
91 93 96 95 96 93 87 86 84 84 85 87 86 86 86 88 91 92 92 92 92 89 86 82 79 76 74 73 71 66 64 60 57 54 50 45 43 40 35 36 35 34 33
85 84 83 79 75 73 72 71 71 73 74 75 76 77 78 79 80 80 81 80 80 79 77 73 69 65 62 61 60 56 54 51 49 46 40 39 36 32 31 30 29 26 25
64 64 64 65 63 62 63 64 66 67 68 70 70 70 71 71 70 71 71 70 68 67 67 63 59 57 55 53 52 51 50 44 42 39 35 34 30 27 25 24 22 19 18
53 54 56 57 56 57 57 58 60 62 62 64 66 66 65 64 62 61 61 60 59 59 58 55 52 50 48 46 46 45 42 38 35 33 31 28 24 23 20 18 17 15 15
42 44 47 48 51 51 54 54 54 56 55 60 60 58 59 58 56 55 54 53 52 50 50 49 47 45 43 42 41 37 35 31 29 28 26 23 22 18 16 13 12 12 13
39 43 44 43 42 46 47 48 47 49 49 46 46 52 52 51 49 47 47 45 45 44 43 42 42 40 37 36 33 31 30 26 25 25 22 21 19 16 14 13 14 12 12
35 37 36 37 39 41 42 41 39 38 39 40 38 35 43 44 41 41 41 42 41 37 34 34 32 33 34 32 28 27 24 22 22 23 22 21 18 16 16 16 18 15 14
31 32 32 33 35 35 35 35 35 34 35 38 40 42 40 33 35 37 35 34 33 33 33 30 25 26 27 24 24 22 21 20 21 23 23 20 18 17 17 18 20 18 17
29 32 34 35 37 38 37 38 38 37 38 40 40 41 42 39 35 30 29 30 29 27 27 26 23 22 22 19 22 18 18 19 22 23 23 20 19 21 19 21 21 21 18
33 33 35 36 37 37 39 39 40 41 42 40 40 39 38 40 36 33 33 31 27 24 24 23 20 20 18 18 19 17 18 20 23 24 23 21 20 21 24 25 24 22 22
35 34 37 35 35 36 37 37 38 41 42 43 41 41 38 37 33 30 29 29 25 22 22 21 19 18 17 18 18 18 20 22 24 24 23 22 22 24 27 29 28 27 26
36 39 40 39 41 42 43 42 41 41 42 43 43 41 38 36 33 29 26 25 26 22 20 18 17 17 17 17 19 20 22 23 25 25 24 22 23 28 29 31 30 29 28
42 45 41 39 40 43 42 41 41 40 40 41 39 39 34 30 31 28 25 24 24 22 19 15 15 15 16 17 20 21 23 25 25 24 23 24 25 30 31 31 32 30 29

GFSGL_250_spd_345.txt.gz
Wind_Speed
101 96 94 95 93 94 95 94 93 93 95 96 98 99 99 98 97 96 95 95 92 91 89 87 84 81 80 80 79 78 79 79 82 83 81 81 85 83 83 80 83 84 85
101 102 104 105 103 101 101 99 100 100 101 102 102 102 102 101 99 98 97 96 94 92 89 87 86 85 84 84 83 85 86 87 88 90 89 90 87 88 88 86 87 89 89
112 112 112 110 109 108 105 102 101 101 101 102 101 100 100 100 100 98 97 96 94 94 93 90 89 88 89 89 92 93 90 91 91 91 91 92 93 91 88 89 89 90 91
117 118 118 115 113 113 112 110 107 105 106 105 104 103 103 101 100 98 99 99 98 98 99 96 98 95 96 97 95 95 98 95 92 92 95 98 97 92 99 102 105 104 103
119 121 118 117 118 117 114 113 111 113 114 111 109 109 107 104 102 100 103 106 105 105 105 102 102 101 98 97 95 95 92 92 96 97 98 99 98 100 107 113 112 112 116
116 114 117 118 120 121 118 115 113 114 113 115 116 114 110 108 105 102 100 97 94 95 94 95 94 96 93 90 89 88 92 99 100 100 100 98 102 115 121 117 118 119 120
120 115 116 119 121 125 123 115 110 108 107 104 102 101 97 95 93 94 90 94 93 92 97 98 96 95 97 97 97 98 99 103 104 109 110 120 124 126 126 127 126 126 123
115 116 121 123 123 115 109 115 106 106 106 104 103 101 100 97 96 99 102 102 100 101 105 109 110 109 111 107 109 111 113 115 119 122 129 127 127 128 129 128 125 119 115
119 120 123 122 121 119 115 107 110 109 102 102 105 105 105 103 102 106 108 109 109 108 109 113 116 118 118 116 116 118 122 125 127 127 130 128 128 127 122 114 109 102 96
126 126 126 123 120 119 114 111 112 112 106 105 107 106 109 107 105 107 110 110 110 109 109 111 116 119 117 119 121 122 125 125 126 129 127 123 116 114 105 99 91 84 76
113 114 113 113 110 110 112 111 112 108 104 101 94 96 95 93 96 101 103 104 104 104 110 117 117 117 117 118 118 119 119 118 119 118 115 108 102 95 88 82 74 68 64
112 112 112 112 111 113 109 105 101 97 95 88 87 87 89 94 97 102 103 102 103 105 109 111 112 112 111 112 111 109 106 104 99 98 96 93 86 79 75 69 65 60 55
98 99 101 102 104 101 98 96 98 94 91 90 92 95 100 103 102 97 95 94 93 94 94 96 96 96 96 94 91 88 86 83 82 81 80 78 72 68 64 60 55 49 48
89 90 98 96 98 97 95 94 89 89 90 95 95 91 87 86 84 84 82 81 80 80 82 82 82 82 81 79 76 73 71 69 69 69 67 63 59 54 51 46 43 41 41
78 79 87 90 90 88 90 89 86 82 81 77 75 76 75 74 74 74 73 72 70 71 71 72 73 72 70 67 65 62 60 57 56 56 53 50 47 43 39 36 36 33 33
62 65 66 68 69 70 71 71 69 69 68 67 68 68 67 67 66 66 67 65 62 61 60 61 61 61 59 56 53 51 49 48 47 45 43 39 36 34 29 30 29 27 26
48 51 53 55 57 57 57 56 58 57 58 56 56 57 58 60 60 62 62 61 58 57 58 55 52 51 50 48 46 44 44 42 39 37 34 30 29 25 24 25 23 22 24
38 41 43 45 47 48 48 49 50 51 53 53 51 50 50 51 53 56 56 52 50 50 51 51 49 44 43 41 39 39 37 35 32 29 26 25 23 20 22 21 19 20 22
32 35 38 40 41 43 44 44 45 46 46 46 47 49 50 43 40 42 43 46 44 44 44 42 39 38 39 38 34 33 28 28 26 24 22 21 19 20 20 18 17 18 18
27 29 31 33 35 37 38 38 40 41 40 42 43 42 44 47 42 39 38 40 41 41 40 38 34 31 30 33 32 28 24 23 21 21 19 18 19 19 18 18 18 17 15
23 25 28 32 33 32 33 34 36 36 38 39 37 35 37 39 42 40 37 38 38 39 41 38 35 32 30 29 27 26 22 21 18 20 18 19 20 20 19 21 19 18 13
24 25 28 29 31 34 34 33 36 37 38 37 37 37 35 34 36 37 36 36 35 35 35 35 33 30 28 27 22 22 18 20 18 21 20 21 22 21 23 22 21 17 15
29 30 28 29 32 33 35 36 38 42 42 42 42 40 39 38 36 37 34 33 35 35 32 29 28 28 25 24 20 18 17 18 19 21 22 23 24 23 25 24 24 21 18
30 31 32 34 33 32 31 31 34 37 41 42 44 46 43 40 34 34 30 30 29 30 30 28 26 26 22 21 19 16 17 17 21 23 24 25 25 26 26 26 26 24 20
33 34 35 33 32 36 35 35 38 41 40 41 43 44 42 39 34 30 25 26 28 27 28 27 22 21 20 18 17 16 16 19 22 24 25 27 27 29 29 30 30 27 24
35 34 34 37 39 40 40 41 41 42 43 44 43 40 39 37 37 34 29 24 23 25 27 23 19 19 17 17 15 15 17 20 24 25 27 28 29 31 32 32 32 28 25